M I D A S
Marine Information and Data Acquisition System
Tripno 505 of the Zeeleeuw from 2003-05-26 06:40:15 to 2003-05-26 16:43:07
Back to CruiseResearch ActivitiesStationsMapUnderway DataData graphs

EquipmentUnitsComment
TimeDGPSUTC
LatitudeDGPSDM.mWGS84
LongitudeDGPSDM.mWGS84
TemperatureSBE03/SBE38deg celciusITS90
ConductivitySBE21S/mITS90
SalinitySBE21 Practical Salinity Units
ChlorophylAChelsea fluorimeterg/lCalibrated in Aceton
Missing or incorrect values are displayed as -999
Sea surface data collected by the RV Zeeleeuw from 2003-05-26 06:40:15 to 2003-05-26 16:43:07
Time Latitude Longitude Temperature Conductivity Salinity ChlorophylA
2003-05-26 06:41:19 51°13.6 2°56.1 -999 -999 -999 -999
2003-05-26 06:42:19 51°13.62 2°56.05 -999 -999 -999 -999
2003-05-26 06:43:19 51°13.64 2°55.93 -999 -999 -999 -999
2003-05-26 06:44:19 51°13.67 2°55.82 -999 -999 -999 -999
2003-05-26 06:45:19 51°13.68 2°55.76 -999 -999 -999 -999
2003-05-26 06:46:15 51°13.7 2°55.79 -999 -999 -999 -999
2003-05-26 06:47:15 51°13.7 2°55.79 -999 -999 -999 -999
2003-05-26 06:48:19 51°13.7 2°55.78 -999 -999 -999 -999
2003-05-26 06:49:15 51°13.75 2°55.72 -999 -999 -999 -999
2003-05-26 06:50:15 51°13.84 2°55.63 -999 -999 -999 -999
2003-05-26 06:51:15 51°13.95 2°55.55 -999 -999 -999 -999
2003-05-26 06:52:15 51°14.07 2°55.46 -999 -999 -999 -999
2003-05-26 06:53:15 51°14.18 2°55.36 -999 -999 -999 -999
2003-05-26 06:54:15 51°14.28 2°55.22 -999 -999 -999 -999
2003-05-26 06:55:15 51°14.37 2°55.06 -999 -999 -999 -999
2003-05-26 06:56:15 51°14.5 2°54.98 -999 -999 -999 -999
2003-05-26 06:57:15 51°14.67 2°54.94 -999 -999 -999 -999
2003-05-26 06:58:15 51°14.84 2°54.91 -999 -999 -999 -999
2003-05-26 06:59:15 51°15.02 2°54.88 -999 -999 -999 -999
2003-05-26 07:00:15 51°15.2 2°54.89 -999 -999 -999 -999
2003-05-26 07:01:15 51°15.39 2°54.87 -999 -999 -999 -999
2003-05-26 07:02:15 51°15.58 2°54.87 -999 -999 -999 -999
2003-05-26 07:03:15 51°15.77 2°54.86 -999 -999 -999 -999
2003-05-26 07:04:15 51°15.96 2°54.83 -999 -999 -999 -999
2003-05-26 07:05:15 51°16.13 2°54.74 -999 -999 -999 -999
2003-05-26 07:06:15 51°16.18 2°54.6 -999 -999 -999 -999
2003-05-26 07:07:15 51°16.2 2°54.5 -999 -999 -999 -999
2003-05-26 07:08:15 51°16.23 2°54.41 -999 -999 -999 -999
2003-05-26 07:09:15 51°16.27 2°54.3 -999 -999 -999 -999
2003-05-26 07:10:15 51°16.28 2°54.28 -999 -999 -999 -999
2003-05-26 07:11:15 51°16.29 2°54.27 -999 -999 -999 -999
2003-05-26 07:12:15 51°16.3 2°54.27 -999 -999 -999 -999
2003-05-26 07:13:15 51°16.3 2°54.27 -999 -999 -999 -999
2003-05-26 07:14:15 51°16.31 2°54.27 -999 -999 -999 -999
2003-05-26 07:15:15 51°16.32 2°54.27 -999 -999 -999 -999
2003-05-26 07:16:15 51°16.32 2°54.28 -999 -999 -999 -999
2003-05-26 07:17:15 51°16.33 2°54.29 -999 -999 -999 -999
2003-05-26 07:18:15 51°16.34 2°54.3 -999 -999 -999 -999
2003-05-26 07:19:15 51°16.34 2°54.31 -999 -999 -999 -999
2003-05-26 07:20:15 51°16.34 2°54.3 -999 -999 -999 -999
2003-05-26 07:21:15 51°16.35 2°54.21 -999 -999 -999 -999
2003-05-26 07:22:15 51°16.42 2°54.03 -999 -999 -999 -999
2003-05-26 07:23:15 51°16.5 2°53.81 -999 -999 -999 -999
2003-05-26 07:24:15 51°16.59 2°53.61 -999 -999 -999 -999
2003-05-26 07:25:15 51°16.71 2°53.44 -999 -999 -999 -999
2003-05-26 07:26:15 51°16.83 2°53.25 -999 -999 -999 -999
2003-05-26 07:27:15 51°16.97 2°53.03 -999 -999 -999 -999
2003-05-26 07:28:15 51°17.12 2°52.8 -999 -999 -999 -999
2003-05-26 07:29:15 51°17.28 2°52.57 -999 -999 -999 -999
2003-05-26 07:30:15 51°17.43 2°52.34 -999 -999 -999 -999
2003-05-26 07:31:15 51°17.59 2°52.11 -999 -999 -999 -999
2003-05-26 07:32:15 51°17.76 2°51.91 -999 -999 -999 -999
2003-05-26 07:33:15 51°17.94 2°51.73 -999 -999 -999 -999
2003-05-26 07:34:15 51°18.13 2°51.55 -999 -999 -999 -999
2003-05-26 07:35:15 51°18.3 2°51.38 -999 -999 -999 -999
2003-05-26 07:36:15 51°18.41 2°51.27 -999 -999 -999 -999
2003-05-26 07:37:15 51°18.45 2°51.13 -999 -999 -999 -999
2003-05-26 07:38:15 51°18.47 2°51.02 -999 -999 -999 -999
2003-05-26 07:39:15 51°18.49 2°51.01 -999 -999 -999 -999
2003-05-26 07:40:15 51°18.51 2°51.02 -999 -999 -999 -999
2003-05-26 07:41:15 51°18.53 2°51.03 -999 -999 -999 -999
2003-05-26 07:42:15 51°18.55 2°51.03 -999 -999 -999 -999
2003-05-26 07:43:15 51°18.57 2°51.03 -999 -999 -999 -999
2003-05-26 07:44:15 51°18.57 2°51.02 -999 -999 -999 -999
2003-05-26 07:45:15 51°18.58 2°51.02 -999 -999 -999 -999
2003-05-26 07:46:15 51°18.58 2°51.02 -999 -999 -999 -999
2003-05-26 07:47:15 51°18.57 2°51.03 -999 -999 -999 -999
2003-05-26 07:48:15 51°18.56 2°51.04 -999 -999 -999 -999
2003-05-26 07:49:15 51°18.54 2°51.04 -999 -999 -999 -999
2003-05-26 07:50:15 51°18.52 2°50.96 -999 -999 -999 -999
2003-05-26 07:51:15 51°18.57 2°50.89 -999 -999 -999 -999
2003-05-26 07:52:15 51°18.71 2°50.94 -999 -999 -999 -999
2003-05-26 07:53:15 51°18.88 2°51.18 -999 -999 -999 -999
2003-05-26 07:54:15 51°18.97 2°51.55 -999 -999 -999 -999
2003-05-26 07:55:15 51°19.03 2°51.93 -999 -999 -999 -999
2003-05-26 07:56:15 51°19.1 2°52.3 -999 -999 -999 -999
2003-05-26 07:57:15 51°19.16 2°52.68 -999 -999 -999 -999
2003-05-26 07:58:15 51°19.23 2°53.06 -999 -999 -999 -999
2003-05-26 07:59:15 51°19.3 2°53.43 -999 -999 -999 -999
2003-05-26 08:00:15 51°19.38 2°53.8 -999 -999 -999 -999
2003-05-26 08:01:15 51°19.46 2°54.18 -999 -999 -999 -999
2003-05-26 08:02:15 51°19.53 2°54.55 -999 -999 -999 -999
2003-05-26 08:03:15 51°19.6 2°54.93 -999 -999 -999 -999
2003-05-26 08:04:15 51°19.68 2°55.31 -999 -999 -999 -999
2003-05-26 08:05:15 51°19.75 2°55.68 -999 -999 -999 -999
2003-05-26 08:06:15 51°19.82 2°56.06 -999 -999 -999 -999
2003-05-26 08:07:15 51°19.9 2°56.44 -999 -999 -999 -999
2003-05-26 08:08:15 51°19.98 2°56.83 -999 -999 -999 -999
2003-05-26 08:09:15 51°20.05 2°57.21 -999 -999 -999 -999
2003-05-26 08:10:15 51°20.13 2°57.59 -999 -999 -999 -999
2003-05-26 08:11:15 51°20.2 2°57.98 -999 -999 -999 -999
2003-05-26 08:12:15 51°20.28 2°58.36 -999 -999 -999 -999
2003-05-26 08:13:15 51°20.36 2°58.74 -999 -999 -999 -999
2003-05-26 08:14:15 51°20.44 2°59.12 -999 -999 -999 -999
2003-05-26 08:15:15 51°20.51 2°59.51 -999 -999 -999 -999
2003-05-26 08:16:15 51°20.58 2°59.9 -999 -999 -999 -999
2003-05-26 08:17:15 51°20.65 3°0.29 -999 -999 -999 -999
2003-05-26 08:18:15 51°20.72 3°0.68 -999 -999 -999 -999
2003-05-26 08:19:23 51°20.81 3°1.12 -999 -999 -999 -999
2003-05-26 08:20:47 51°20.9 3°1.67 -999 -999 -999 -999
2003-05-26 08:21:49 51°20.98 3°2.07 -999 -999 -999 -999
2003-05-26 08:22:55 51°21.05 3°2.5 -999 -999 -999 -999
2003-05-26 08:24:07 51°21.15 3°2.97 -999 -999 -999 -999
2003-05-26 08:25:07 51°21.23 3°3.36 -999 -999 -999 -999
2003-05-26 08:26:19 51°21.32 3°3.83 -999 -999 -999 -999
2003-05-26 08:27:35 51°21.42 3°4.32 -999 -999 -999 -999
2003-05-26 08:28:35 51°21.5 3°4.72 -999 -999 -999 -999
2003-05-26 08:29:53 51°21.61 3°5.23 -999 -999 -999 -999
2003-05-26 08:30:53 51°21.68 3°5.63 -999 -999 -999 -999
2003-05-26 08:31:53 51°21.75 3°6.02 -999 -999 -999 -999
2003-05-26 08:33:03 51°21.82 3°6.49 -999 -999 -999 -999
2003-05-26 08:34:09 51°21.88 3°6.94 -999 -999 -999 -999
2003-05-26 08:35:15 51°21.93 3°7.39 -999 -999 -999 -999
2003-05-26 08:36:15 51°21.98 3°7.8 -999 -999 -999 -999
2003-05-26 08:37:23 51°22.04 3°8.26 -999 -999 -999 -999
2003-05-26 08:38:39 51°22.1 3°8.78 -999 -999 -999 -999
2003-05-26 08:39:39 51°22.14 3°9.19 -999 -999 -999 -999
2003-05-26 08:40:53 51°22.19 3°9.62 -999 -999 -999 -999
2003-05-26 08:41:53 51°22.22 3°9.85 -999 -999 -999 -999
2003-05-26 08:42:53 51°22.23 3°10.05 -999 -999 -999 -999
2003-05-26 08:43:53 51°22.21 3°10.36 -999 -999 -999 -999
2003-05-26 08:45:03 51°22.28 3°10.84 -999 -999 -999 -999
2003-05-26 08:46:03 51°22.36 3°11.25 -999 -999 -999 -999
2003-05-26 08:47:03 51°22.44 3°11.67 -999 -999 -999 -999
2003-05-26 08:48:15 51°22.54 3°12.17 -999 -999 -999 -999
2003-05-26 08:49:27 51°22.6 3°12.58 -999 -999 -999 -999
2003-05-26 08:50:27 51°22.64 3°12.84 -999 -999 -999 -999
2003-05-26 08:51:27 51°22.66 3°13.07 -999 -999 -999 -999
2003-05-26 08:52:43 51°22.65 3°13.29 -999 -999 -999 -999
2003-05-26 08:53:43 51°22.6 3°13.36 -999 -999 -999 -999
2003-05-26 08:54:43 51°22.56 3°13.35 -999 -999 -999 -999
2003-05-26 08:55:43 51°22.59 3°13.28 -999 -999 -999 -999
2003-05-26 08:56:43 51°22.6 3°13.23 -999 -999 -999 -999
2003-05-26 08:57:43 51°22.6 3°13.24 -999 -999 -999 -999
2003-05-26 08:58:43 51°22.6 3°13.26 -999 -999 -999 -999
2003-05-26 08:59:55 51°22.59 3°13.28 -999 -999 -999 -999
2003-05-26 09:00:55 51°22.59 3°13.31 -999 -999 -999 -999
2003-05-26 09:01:55 51°22.57 3°13.34 -999 -999 -999 -999
2003-05-26 09:03:11 51°22.56 3°13.37 -999 -999 -999 -999
2003-05-26 09:04:11 51°22.56 3°13.38 -999 -999 -999 -999
2003-05-26 09:05:15 51°22.57 3°13.39 -999 -999 -999 -999
2003-05-26 09:06:15 51°22.59 3°13.41 -999 -999 -999 -999
2003-05-26 09:07:23 51°22.62 3°13.44 -999 -999 -999 -999
2003-05-26 09:08:23 51°22.65 3°13.45 -999 -999 -999 -999
2003-05-26 09:09:23 51°22.72 3°13.43 -999 -999 -999 -999
2003-05-26 09:10:23 51°22.88 3°13.41 -999 -999 -999 -999
2003-05-26 09:11:33 51°23.09 3°13.41 -999 -999 -999 -999
2003-05-26 09:12:31 51°23.27 3°13.47 -999 -999 -999 -999
2003-05-26 09:13:39 51°23.4 3°13.67 -999 -999 -999 -999
2003-05-26 09:14:39 51°23.5 3°13.87 -999 -999 -999 -999
2003-05-26 09:15:39 51°23.59 3°14.05 -999 -999 -999 -999
2003-05-26 09:16:39 51°23.69 3°14.24 -999 -999 -999 -999
2003-05-26 09:17:49 51°23.8 3°14.46 -999 -999 -999 -999
2003-05-26 09:18:49 51°23.9 3°14.62 -999 -999 -999 -999
2003-05-26 09:19:47 51°23.98 3°14.7 -999 -999 -999 -999
2003-05-26 09:20:47 51°24.05 3°14.73 -999 -999 -999 -999
2003-05-26 09:21:47 51°24.13 3°14.72 -999 -999 -999 -999
2003-05-26 09:22:49 51°24.27 3°14.62 -999 -999 -999 -999
2003-05-26 09:23:47 51°24.49 3°14.61 -999 -999 -999 -999
2003-05-26 09:24:49 51°24.73 3°14.67 -999 -999 -999 -999
2003-05-26 09:25:49 51°24.95 3°14.86 -999 -999 -999 -999
2003-05-26 09:26:49 51°25.09 3°15.21 -999 -999 -999 -999
2003-05-26 09:27:47 51°25.22 3°15.55 -999 -999 -999 -999
2003-05-26 09:28:59 51°25.37 3°15.98 -999 -999 -999 -999
2003-05-26 09:29:59 51°25.49 3°16.32 -999 -999 -999 -999
2003-05-26 09:30:59 51°25.61 3°16.66 -999 -999 -999 -999
2003-05-26 09:31:59 51°25.74 3°17 -999 -999 -999 -999
2003-05-26 09:32:59 51°25.84 3°17.34 -999 -999 -999 -999
2003-05-26 09:33:59 51°25.83 3°17.56 -999 -999 -999 -999
2003-05-26 09:34:59 51°25.77 3°17.61 -999 -999 -999 -999
2003-05-26 09:35:59 51°25.75 3°17.63 -999 -999 -999 -999
2003-05-26 09:36:59 51°25.77 3°17.68 -999 -999 -999 -999
2003-05-26 09:37:59 51°25.81 3°17.74 -999 -999 -999 -999
2003-05-26 09:38:59 51°25.86 3°17.79 -999 -999 -999 -999
2003-05-26 09:39:59 51°25.9 3°17.84 -999 -999 -999 -999
2003-05-26 09:40:59 51°25.91 3°17.86 -999 -999 -999 -999
2003-05-26 09:41:59 51°25.89 3°17.88 -999 -999 -999 -999
2003-05-26 09:42:59 51°25.87 3°17.89 -999 -999 -999 -999
2003-05-26 09:43:59 51°25.86 3°17.89 -999 -999 -999 -999
2003-05-26 09:44:59 51°25.85 3°17.89 -999 -999 -999 -999
2003-05-26 09:45:59 51°25.84 3°17.88 -999 -999 -999 -999
2003-05-26 09:46:59 51°25.84 3°17.82 -999 -999 -999 -999
2003-05-26 09:47:59 51°25.81 3°17.55 -999 -999 -999 -999
2003-05-26 09:48:59 51°25.8 3°17.23 -999 -999 -999 -999
2003-05-26 09:49:59 51°25.79 3°16.9 -999 -999 -999 -999
2003-05-26 09:50:59 51°25.78 3°16.57 -999 -999 -999 -999
2003-05-26 09:51:59 51°25.77 3°16.25 -999 -999 -999 -999
2003-05-26 09:52:59 51°25.75 3°15.92 -999 -999 -999 -999
2003-05-26 09:53:59 51°25.74 3°15.59 -999 -999 -999 -999
2003-05-26 09:54:59 51°25.72 3°15.25 -999 -999 -999 -999
2003-05-26 09:55:59 51°25.7 3°14.9 -999 -999 -999 -999
2003-05-26 09:56:59 51°25.68 3°14.54 -999 -999 -999 -999
2003-05-26 09:57:59 51°25.66 3°14.19 -999 -999 -999 -999
2003-05-26 09:58:59 51°25.64 3°13.84 -999 -999 -999 -999
2003-05-26 09:59:59 51°25.62 3°13.48 -999 -999 -999 -999
2003-05-26 10:00:59 51°25.6 3°13.12 -999 -999 -999 -999
2003-05-26 10:01:59 51°25.58 3°12.77 -999 -999 -999 -999
2003-05-26 10:02:59 51°25.56 3°12.41 -999 -999 -999 -999
2003-05-26 10:03:59 51°25.56 3°12.05 -999 -999 -999 -999
2003-05-26 10:04:59 51°25.59 3°11.7 -999 -999 -999 -999
2003-05-26 10:05:59 51°25.65 3°11.36 -999 -999 -999 -999
2003-05-26 10:06:59 51°25.73 3°11.02 -999 -999 -999 -999
2003-05-26 10:07:59 51°25.81 3°10.69 -999 -999 -999 -999
2003-05-26 10:08:59 51°25.89 3°10.36 -999 -999 -999 -999
2003-05-26 10:09:59 51°25.97 3°10.02 -999 -999 -999 -999
2003-05-26 10:10:59 51°26.06 3°9.69 -999 -999 -999 -999
2003-05-26 10:11:59 51°26.14 3°9.35 -999 -999 -999 -999
2003-05-26 10:12:59 51°26.22 3°9.02 -999 -999 -999 -999
2003-05-26 10:13:59 51°26.32 3°8.7 -999 -999 -999 -999
2003-05-26 10:14:59 51°26.43 3°8.54 -999 -999 -999 -999
2003-05-26 10:15:59 51°26.44 3°8.43 -999 -999 -999 -999
2003-05-26 10:16:59 51°26.44 3°8.36 -999 -999 -999 -999
2003-05-26 10:17:59 51°26.45 3°8.33 -999 -999 -999 -999
2003-05-26 10:18:59 51°26.45 3°8.33 -999 -999 -999 -999
2003-05-26 10:19:59 51°26.46 3°8.33 -999 -999 -999 -999
2003-05-26 10:20:59 51°26.47 3°8.32 -999 -999 -999 -999
2003-05-26 10:21:59 51°26.48 3°8.33 -999 -999 -999 -999
2003-05-26 10:22:59 51°26.49 3°8.33 -999 -999 -999 -999
2003-05-26 10:23:59 51°26.5 3°8.33 -999 -999 -999 -999
2003-05-26 10:24:59 51°26.5 3°8.34 -999 -999 -999 -999
2003-05-26 10:25:59 51°26.51 3°8.34 -999 -999 -999 -999
2003-05-26 10:26:59 51°26.5 3°8.28 -999 -999 -999 -999
2003-05-26 10:27:59 51°26.48 3°8.13 -999 -999 -999 -999
2003-05-26 10:28:59 51°26.52 3°7.95 -999 -999 -999 -999
2003-05-26 10:29:59 51°26.6 3°7.79 -999 -999 -999 -999
2003-05-26 10:30:59 51°26.66 3°7.62 -999 -999 -999 -999
2003-05-26 10:31:59 51°26.73 3°7.45 -999 -999 -999 -999
2003-05-26 10:32:59 51°26.82 3°7.22 -999 -999 -999 -999
2003-05-26 10:33:59 51°26.91 3°6.96 -999 -999 -999 -999
2003-05-26 10:34:59 51°27.01 3°6.69 -999 -999 -999 -999
2003-05-26 10:35:59 51°27.11 3°6.44 -999 -999 -999 -999
2003-05-26 10:36:59 51°27.22 3°6.18 -999 -999 -999 -999
2003-05-26 10:37:59 51°27.33 3°5.93 -999 -999 -999 -999
2003-05-26 10:38:59 51°27.43 3°5.67 -999 -999 -999 -999
2003-05-26 10:39:59 51°27.54 3°5.42 -999 -999 -999 -999
2003-05-26 10:40:59 51°27.65 3°5.16 -999 -999 -999 -999
2003-05-26 10:41:59 51°27.75 3°4.91 -999 -999 -999 -999
2003-05-26 10:42:59 51°27.86 3°4.66 -999 -999 -999 -999
2003-05-26 10:43:59 51°27.96 3°4.41 -999 -999 -999 -999
2003-05-26 10:44:59 51°28.07 3°4.16 -999 -999 -999 -999
2003-05-26 10:45:59 51°28.18 3°3.92 -999 -999 -999 -999
2003-05-26 10:46:59 51°28.28 3°3.67 -999 -999 -999 -999
2003-05-26 10:47:59 51°28.28 3°3.53 -999 -999 -999 -999
2003-05-26 10:48:59 51°28.28 3°3.49 -999 -999 -999 -999
2003-05-26 10:49:59 51°28.3 3°3.48 -999 -999 -999 -999
2003-05-26 10:50:59 51°28.31 3°3.48 -999 -999 -999 -999
2003-05-26 10:51:59 51°28.33 3°3.49 -999 -999 -999 -999
2003-05-26 10:52:59 51°28.34 3°3.49 -999 -999 -999 -999
2003-05-26 10:53:59 51°28.35 3°3.5 -999 -999 -999 -999
2003-05-26 10:54:59 51°28.36 3°3.51 -999 -999 -999 -999
2003-05-26 10:55:59 51°28.37 3°3.51 -999 -999 -999 -999
2003-05-26 10:56:59 51°28.38 3°3.52 -999 -999 -999 -999
2003-05-26 10:57:59 51°28.4 3°3.52 -999 -999 -999 -999
2003-05-26 10:58:59 51°28.41 3°3.53 -999 -999 -999 -999
2003-05-26 10:59:59 51°28.42 3°3.54 -999 -999 -999 -999
2003-05-26 11:00:59 51°28.42 3°3.47 -999 -999 -999 -999
2003-05-26 11:01:59 51°28.37 3°3.24 -999 -999 -999 -999
2003-05-26 11:02:59 51°28.31 3°2.92 -999 -999 -999 -999
2003-05-26 11:03:59 51°28.25 3°2.59 -999 -999 -999 -999
2003-05-26 11:04:59 51°28.19 3°2.27 -999 -999 -999 -999
2003-05-26 11:05:59 51°28.13 3°1.94 -999 -999 -999 -999
2003-05-26 11:06:59 51°28.07 3°1.61 -999 -999 -999 -999
2003-05-26 11:07:59 51°28.01 3°1.28 -999 -999 -999 -999
2003-05-26 11:08:59 51°27.95 3°0.94 -999 -999 -999 -999
2003-05-26 11:09:59 51°27.89 3°0.61 -999 -999 -999 -999
2003-05-26 11:10:59 51°27.83 3°0.27 -999 -999 -999 -999
2003-05-26 11:11:59 51°27.77 2°59.94 -999 -999 -999 -999
2003-05-26 11:12:59 51°27.71 2°59.6 -999 -999 -999 -999
2003-05-26 11:13:59 51°27.65 2°59.27 -999 -999 -999 -999
2003-05-26 11:14:59 51°27.58 2°58.93 -999 -999 -999 -999
2003-05-26 11:15:59 51°27.52 2°58.59 -999 -999 -999 -999
2003-05-26 11:16:59 51°27.46 2°58.26 -999 -999 -999 -999
2003-05-26 11:17:59 51°27.4 2°57.92 -999 -999 -999 -999
2003-05-26 11:18:59 51°27.34 2°57.59 -999 -999 -999 -999
2003-05-26 11:19:59 51°27.27 2°57.25 -999 -999 -999 -999
2003-05-26 11:20:59 51°27.21 2°56.92 -999 -999 -999 -999
2003-05-26 11:21:59 51°27.15 2°56.59 -999 -999 -999 -999
2003-05-26 11:22:59 51°27.09 2°56.26 -999 -999 -999 -999
2003-05-26 11:23:59 51°27.03 2°55.93 -999 -999 -999 -999
2003-05-26 11:24:59 51°26.97 2°55.6 -999 -999 -999 -999
2003-05-26 11:25:59 51°26.91 2°55.27 -999 -999 -999 -999
2003-05-26 11:26:59 51°26.85 2°54.94 -999 -999 -999 -999
2003-05-26 11:27:59 51°26.8 2°54.6 -999 -999 -999 -999
2003-05-26 11:28:59 51°26.75 2°54.27 -999 -999 -999 -999
2003-05-26 11:29:59 51°26.69 2°53.94 -999 -999 -999 -999
2003-05-26 11:30:59 51°26.64 2°53.6 -999 -999 -999 -999
2003-05-26 11:31:59 51°26.58 2°53.26 -999 -999 -999 -999
2003-05-26 11:32:59 51°26.53 2°52.92 -999 -999 -999 -999
2003-05-26 11:33:59 51°26.48 2°52.58 -999 -999 -999 -999
2003-05-26 11:34:59 51°26.43 2°52.24 -999 -999 -999 -999
2003-05-26 11:35:59 51°26.38 2°51.9 -999 -999 -999 -999
2003-05-26 11:36:59 51°26.34 2°51.56 -999 -999 -999 -999
2003-05-26 11:37:59 51°26.29 2°51.22 -999 -999 -999 -999
2003-05-26 11:38:59 51°26.25 2°50.88 -999 -999 -999 -999
2003-05-26 11:39:59 51°26.21 2°50.54 -999 -999 -999 -999
2003-05-26 11:40:59 51°26.17 2°50.2 -999 -999 -999 -999
2003-05-26 11:41:59 51°26.14 2°49.86 -999 -999 -999 -999
2003-05-26 11:42:59 51°26.1 2°49.52 -999 -999 -999 -999
2003-05-26 11:43:59 51°26.06 2°49.18 -999 -999 -999 -999
2003-05-26 11:44:59 51°26.03 2°48.84 -999 -999 -999 -999
2003-05-26 11:45:59 51°26.01 2°48.63 -999 -999 -999 -999
2003-05-26 11:46:59 51°26.01 2°48.52 -999 -999 -999 -999
2003-05-26 11:47:59 51°26.02 2°48.49 -999 -999 -999 -999
2003-05-26 11:48:59 51°26.02 2°48.49 -999 -999 -999 -999
2003-05-26 11:49:59 51°26.02 2°48.48 -999 -999 -999 -999
2003-05-26 11:50:59 51°26.03 2°48.48 -999 -999 -999 -999
2003-05-26 11:51:59 51°26.03 2°48.48 -999 -999 -999 -999
2003-05-26 11:52:59 51°26.04 2°48.49 -999 -999 -999 -999
2003-05-26 11:53:59 51°26.04 2°48.49 -999 -999 -999 -999
2003-05-26 11:54:59 51°26.04 2°48.5 -999 -999 -999 -999
2003-05-26 11:55:59 51°26.04 2°48.51 -999 -999 -999 -999
2003-05-26 11:56:59 51°26.04 2°48.53 -999 -999 -999 -999
2003-05-26 11:57:59 51°26.03 2°48.54 -999 -999 -999 -999
2003-05-26 11:58:59 51°26.03 2°48.54 -999 -999 -999 -999
2003-05-26 11:59:59 51°26.02 2°48.55 -999 -999 -999 -999
2003-05-26 12:00:59 51°26.01 2°48.56 -999 -999 -999 -999
2003-05-26 12:01:59 51°26.01 2°48.57 -999 -999 -999 -999
2003-05-26 12:02:59 51°26 2°48.57 -999 -999 -999 -999
2003-05-26 12:03:59 51°25.99 2°48.57 -999 -999 -999 -999
2003-05-26 12:04:59 51°25.92 2°48.48 -999 -999 -999 -999
2003-05-26 12:05:59 51°25.84 2°48.22 -999 -999 -999 -999
2003-05-26 12:06:59 51°25.77 2°47.91 -999 -999 -999 -999
2003-05-26 12:07:59 51°25.7 2°47.59 -999 -999 -999 -999
2003-05-26 12:08:59 51°25.64 2°47.25 -999 -999 -999 -999
2003-05-26 12:09:59 51°25.57 2°46.92 -999 -999 -999 -999
2003-05-26 12:10:59 51°25.5 2°46.58 -999 -999 -999 -999
2003-05-26 12:11:59 51°25.43 2°46.25 -999 -999 -999 -999
2003-05-26 12:12:59 51°25.36 2°45.92 -999 -999 -999 -999
2003-05-26 12:13:59 51°25.3 2°45.58 -999 -999 -999 -999
2003-05-26 12:14:59 51°25.25 2°45.24 -999 -999 -999 -999
2003-05-26 12:15:59 51°25.19 2°44.9 -999 -999 -999 -999
2003-05-26 12:16:59 51°25.13 2°44.56 -999 -999 -999 -999
2003-05-26 12:17:59 51°25.07 2°44.22 -999 -999 -999 -999
2003-05-26 12:18:59 51°25 2°43.89 -999 -999 -999 -999
2003-05-26 12:19:59 51°24.93 2°43.55 -999 -999 -999 -999
2003-05-26 12:20:59 51°24.86 2°43.22 -999 -999 -999 -999
2003-05-26 12:21:59 51°24.8 2°42.88 -999 -999 -999 -999
2003-05-26 12:22:59 51°24.73 2°42.55 -999 -999 -999 -999
2003-05-26 12:23:59 51°24.66 2°42.21 -999 -999 -999 -999
2003-05-26 12:24:59 51°24.59 2°41.88 -999 -999 -999 -999
2003-05-26 12:25:59 51°24.53 2°41.55 -999 -999 -999 -999
2003-05-26 12:26:59 51°24.46 2°41.21 -999 -999 -999 -999
2003-05-26 12:27:59 51°24.39 2°40.88 -999 -999 -999 -999
2003-05-26 12:28:59 51°24.31 2°40.55 -999 -999 -999 -999
2003-05-26 12:29:59 51°24.23 2°40.23 -999 -999 -999 -999
2003-05-26 12:30:59 51°24.15 2°39.9 -999 -999 -999 -999
2003-05-26 12:31:59 51°24.06 2°39.57 -999 -999 -999 -999
2003-05-26 12:32:59 51°23.99 2°39.24 -999 -999 -999 -999
2003-05-26 12:33:59 51°23.93 2°38.9 -999 -999 -999 -999
2003-05-26 12:34:59 51°23.87 2°38.55 -999 -999 -999 -999
2003-05-26 12:35:59 51°23.83 2°38.21 -999 -999 -999 -999
2003-05-26 12:36:59 51°23.79 2°37.85 -999 -999 -999 -999
2003-05-26 12:37:59 51°23.77 2°37.5 -999 -999 -999 -999
2003-05-26 12:38:59 51°23.75 2°37.14 -999 -999 -999 -999
2003-05-26 12:39:59 51°23.73 2°36.78 -999 -999 -999 -999
2003-05-26 12:40:59 51°23.73 2°36.42 -999 -999 -999 -999
2003-05-26 12:41:59 51°23.72 2°36.06 -999 -999 -999 -999
2003-05-26 12:42:59 51°23.71 2°35.71 -999 -999 -999 -999
2003-05-26 12:43:59 51°23.71 2°35.37 -999 -999 -999 -999
2003-05-26 12:44:59 51°23.7 2°35.04 -999 -999 -999 -999
2003-05-26 12:45:59 51°23.7 2°34.72 -999 -999 -999 -999
2003-05-26 12:46:59 51°23.69 2°34.39 -999 -999 -999 -999
2003-05-26 12:47:59 51°23.69 2°34.08 -999 -999 -999 -999
2003-05-26 12:48:59 51°23.68 2°33.76 -999 -999 -999 -999
2003-05-26 12:49:59 51°23.68 2°33.44 -999 -999 -999 -999
2003-05-26 12:50:59 51°23.67 2°33.13 -999 -999 -999 -999
2003-05-26 12:51:59 51°23.67 2°32.82 -999 -999 -999 -999
2003-05-26 12:52:59 51°23.66 2°32.51 -999 -999 -999 -999
2003-05-26 12:53:59 51°23.66 2°32.21 -999 -999 -999 -999
2003-05-26 12:54:59 51°23.65 2°31.91 -999 -999 -999 -999
2003-05-26 12:55:59 51°23.65 2°31.62 -999 -999 -999 -999
2003-05-26 12:56:59 51°23.65 2°31.34 -999 -999 -999 -999
2003-05-26 12:57:59 51°23.64 2°31.07 -999 -999 -999 -999
2003-05-26 12:58:59 51°23.61 2°30.81 -999 -999 -999 -999
2003-05-26 12:59:59 51°23.56 2°30.57 -999 -999 -999 -999
2003-05-26 13:00:59 51°23.42 2°30.58 -999 -999 -999 -999
2003-05-26 13:01:59 51°23.21 2°30.57 -999 -999 -999 -999
2003-05-26 13:02:59 51°22.99 2°30.52 -999 -999 -999 -999
2003-05-26 13:03:59 51°22.77 2°30.45 -999 -999 -999 -999
2003-05-26 13:04:59 51°22.55 2°30.39 -999 -999 -999 -999
2003-05-26 13:05:59 51°22.33 2°30.33 -999 -999 -999 -999
2003-05-26 13:06:59 51°22.1 2°30.27 -999 -999 -999 -999
2003-05-26 13:07:59 51°21.88 2°30.2 -999 -999 -999 -999
2003-05-26 13:08:59 51°21.66 2°30.14 -999 -999 -999 -999
2003-05-26 13:09:59 51°21.43 2°30.07 -999 -999 -999 -999
2003-05-26 13:10:59 51°21.25 2°30.03 -999 -999 -999 -999
2003-05-26 13:11:59 51°21.05 2°29.97 -999 -999 -999 -999
2003-05-26 13:12:59 51°20.84 2°29.92 -999 -999 -999 -999
2003-05-26 13:13:59 51°20.63 2°29.86 -999 -999 -999 -999
2003-05-26 13:14:59 51°20.42 2°29.81 -999 -999 -999 -999
2003-05-26 13:15:59 51°20.23 2°29.76 -999 -999 -999 -999
2003-05-26 13:16:59 51°20.13 2°29.65 -999 -999 -999 -999
2003-05-26 13:17:59 51°20.11 2°29.55 -999 -999 -999 -999
2003-05-26 13:18:59 51°20.11 2°29.48 -999 -999 -999 -999
2003-05-26 13:19:59 51°20.11 2°29.45 -999 -999 -999 -999
2003-05-26 13:21:01 51°20.11 2°29.48 -999 -999 -999 -999
2003-05-26 13:22:01 51°20.1 2°29.59 -999 -999 -999 -999
2003-05-26 13:23:01 51°20.08 2°29.72 -999 -999 -999 -999
2003-05-26 13:23:59 51°20.06 2°29.82 -999 -999 -999 -999
2003-05-26 13:24:59 51°20.05 2°29.85 -999 -999 -999 -999
2003-05-26 13:25:59 51°20.05 2°29.86 -999 -999 -999 -999
2003-05-26 13:26:59 51°20.05 2°29.86 -999 -999 -999 -999
2003-05-26 13:27:59 51°20.05 2°29.87 -999 -999 -999 -999
2003-05-26 13:28:59 51°20.05 2°29.87 -999 -999 -999 -999
2003-05-26 13:29:59 51°20.04 2°29.87 -999 -999 -999 -999
2003-05-26 13:30:59 51°20.04 2°29.87 -999 -999 -999 -999
2003-05-26 13:31:59 51°20.04 2°29.87 -999 -999 -999 -999
2003-05-26 13:32:59 51°20.04 2°29.86 -999 -999 -999 -999
2003-05-26 13:33:59 51°20.08 2°29.79 -999 -999 -999 -999
2003-05-26 13:34:59 51°20.15 2°29.82 -999 -999 -999 -999
2003-05-26 13:35:59 51°20.13 2°29.94 -999 -999 -999 -999
2003-05-26 13:36:59 51°20.03 2°30.15 -999 -999 -999 -999
2003-05-26 13:37:59 51°19.93 2°30.38 -999 -999 -999 -999
2003-05-26 13:38:59 51°19.81 2°30.61 -999 -999 -999 -999
2003-05-26 13:39:59 51°19.68 2°30.89 -999 -999 -999 -999
2003-05-26 13:40:59 51°19.54 2°31.18 -999 -999 -999 -999
2003-05-26 13:41:59 51°19.41 2°31.48 -999 -999 -999 -999
2003-05-26 13:42:59 51°19.28 2°31.78 -999 -999 -999 -999
2003-05-26 13:43:59 51°19.14 2°32.07 -999 -999 -999 -999
2003-05-26 13:44:59 51°19.02 2°32.37 -999 -999 -999 -999
2003-05-26 13:45:59 51°18.89 2°32.67 -999 -999 -999 -999
2003-05-26 13:46:59 51°18.76 2°32.97 -999 -999 -999 -999
2003-05-26 13:47:59 51°18.63 2°33.26 -999 -999 -999 -999
2003-05-26 13:48:59 51°18.5 2°33.56 -999 -999 -999 -999
2003-05-26 13:49:59 51°18.37 2°33.84 -999 -999 -999 -999
2003-05-26 13:50:59 51°18.24 2°34.14 -999 -999 -999 -999
2003-05-26 13:51:59 51°18.11 2°34.43 -999 -999 -999 -999
2003-05-26 13:52:59 51°17.98 2°34.73 -999 -999 -999 -999
2003-05-26 13:53:59 51°17.87 2°35.02 -999 -999 -999 -999
2003-05-26 13:54:59 51°17.75 2°35.3 -999 -999 -999 -999
2003-05-26 13:55:59 51°17.64 2°35.58 -999 -999 -999 -999
2003-05-26 13:56:59 51°17.53 2°35.85 -999 -999 -999 -999
2003-05-26 13:57:59 51°17.41 2°36.12 -999 -999 -999 -999
2003-05-26 13:58:59 51°17.26 2°36.36 -999 -999 -999 -999
2003-05-26 13:59:59 51°17.1 2°36.59 -999 -999 -999 -999
2003-05-26 14:00:59 51°16.92 2°36.78 -999 -999 -999 -999
2003-05-26 14:01:59 51°16.75 2°36.85 -999 -999 -999 -999
2003-05-26 14:02:59 51°16.64 2°36.84 -999 -999 -999 -999
2003-05-26 14:03:59 51°16.57 2°36.84 -999 -999 -999 -999
2003-05-26 14:04:59 51°16.55 2°36.82 -999 -999 -999 -999
2003-05-26 14:05:59 51°16.54 2°36.8 -999 -999 -999 -999
2003-05-26 14:06:59 51°16.54 2°36.78 -999 -999 -999 -999
2003-05-26 14:07:59 51°16.53 2°36.76 -999 -999 -999 -999
2003-05-26 14:08:59 51°16.52 2°36.74 -999 -999 -999 -999
2003-05-26 14:09:59 51°16.52 2°36.72 -999 -999 -999 -999
2003-05-26 14:10:59 51°16.52 2°36.7 -999 -999 -999 -999
2003-05-26 14:11:59 51°16.51 2°36.68 -999 -999 -999 -999
2003-05-26 14:12:59 51°16.51 2°36.66 -999 -999 -999 -999
2003-05-26 14:13:59 51°16.51 2°36.64 -999 -999 -999 -999
2003-05-26 14:14:59 51°16.51 2°36.61 -999 -999 -999 -999
2003-05-26 14:15:59 51°16.51 2°36.59 -999 -999 -999 -999
2003-05-26 14:16:59 51°16.51 2°36.57 -999 -999 -999 -999
2003-05-26 14:17:59 51°16.52 2°36.54 -999 -999 -999 -999
2003-05-26 14:18:59 51°16.54 2°36.52 -999 -999 -999 -999
2003-05-26 14:19:59 51°16.57 2°36.51 -999 -999 -999 -999
2003-05-26 14:20:59 51°16.59 2°36.51 -999 -999 -999 -999
2003-05-26 14:21:59 51°16.61 2°36.53 -999 -999 -999 -999
2003-05-26 14:22:59 51°16.63 2°36.58 -999 -999 -999 -999
2003-05-26 14:23:59 51°16.57 2°36.69 -999 -999 -999 -999
2003-05-26 14:24:59 51°16.43 2°36.62 -999 -999 -999 -999
2003-05-26 14:25:59 51°16.22 2°36.51 -999 -999 -999 -999
2003-05-26 14:26:59 51°16.02 2°36.39 -999 -999 -999 -999
2003-05-26 14:27:59 51°15.81 2°36.28 -999 -999 -999 -999
2003-05-26 14:28:59 51°15.6 2°36.16 -999 -999 -999 -999
2003-05-26 14:29:59 51°15.39 2°36.04 -999 -999 -999 -999
2003-05-26 14:30:59 51°15.17 2°35.92 -999 -999 -999 -999
2003-05-26 14:31:59 51°14.94 2°35.8 -999 -999 -999 -999
2003-05-26 14:32:59 51°14.72 2°35.68 -999 -999 -999 -999
2003-05-26 14:33:59 51°14.49 2°35.57 -999 -999 -999 -999
2003-05-26 14:34:59 51°14.26 2°35.48 -999 -999 -999 -999
2003-05-26 14:35:59 51°14.04 2°35.38 -999 -999 -999 -999
2003-05-26 14:36:59 51°13.81 2°35.36 -999 -999 -999 -999
2003-05-26 14:37:59 51°13.61 2°35.51 -999 -999 -999 -999
2003-05-26 14:38:59 51°13.5 2°35.78 -999 -999 -999 -999
2003-05-26 14:39:59 51°13.56 2°36.08 -999 -999 -999 -999
2003-05-26 14:40:59 51°13.66 2°36.38 -999 -999 -999 -999
2003-05-26 14:41:59 51°13.75 2°36.68 -999 -999 -999 -999
2003-05-26 14:42:59 51°13.83 2°36.99 -999 -999 -999 -999
2003-05-26 14:43:59 51°13.89 2°37.31 -999 -999 -999 -999
2003-05-26 14:44:59 51°13.94 2°37.64 -999 -999 -999 -999
2003-05-26 14:45:59 51°13.98 2°37.98 -999 -999 -999 -999
2003-05-26 14:46:59 51°14.01 2°38.31 -999 -999 -999 -999
2003-05-26 14:47:59 51°14 2°38.65 -999 -999 -999 -999
2003-05-26 14:48:59 51°13.83 2°38.84 -999 -999 -999 -999
2003-05-26 14:49:59 51°13.6 2°38.79 -999 -999 -999 -999
2003-05-26 14:50:59 51°13.38 2°38.63 -999 -999 -999 -999
2003-05-26 14:51:59 51°13.17 2°38.43 -999 -999 -999 -999
2003-05-26 14:52:59 51°12.96 2°38.23 -999 -999 -999 -999
2003-05-26 14:53:59 51°12.76 2°38.03 -999 -999 -999 -999
2003-05-26 14:54:59 51°12.55 2°37.82 -999 -999 -999 -999
2003-05-26 14:55:59 51°12.35 2°37.6 -999 -999 -999 -999
2003-05-26 14:56:59 51°12.14 2°37.39 -999 -999 -999 -999
2003-05-26 14:57:59 51°11.94 2°37.17 -999 -999 -999 -999
2003-05-26 14:58:59 51°11.73 2°36.95 -999 -999 -999 -999
2003-05-26 14:59:59 51°11.53 2°36.74 -999 -999 -999 -999
2003-05-26 15:00:59 51°11.32 2°36.53 -999 -999 -999 -999
2003-05-26 15:01:59 51°11.1 2°36.36 -999 -999 -999 -999
2003-05-26 15:02:59 51°10.87 2°36.2 -999 -999 -999 -999
2003-05-26 15:03:59 51°10.64 2°36.07 -999 -999 -999 -999
2003-05-26 15:04:59 51°10.41 2°35.95 -999 -999 -999 -999
2003-05-26 15:05:59 51°10.18 2°35.96 -999 -999 -999 -999
2003-05-26 15:06:59 51°10 2°36.17 -999 -999 -999 -999
2003-05-26 15:07:59 51°9.95 2°36.49 -999 -999 -999 -999
2003-05-26 15:08:59 51°10.01 2°36.81 -999 -999 -999 -999
2003-05-26 15:09:59 51°10.06 2°37.14 -999 -999 -999 -999
2003-05-26 15:10:59 51°10.12 2°37.46 -999 -999 -999 -999
2003-05-26 15:11:59 51°10.17 2°37.79 -999 -999 -999 -999
2003-05-26 15:12:59 51°10.24 2°38.1 -999 -999 -999 -999
2003-05-26 15:13:59 51°10.32 2°38.41 -999 -999 -999 -999
2003-05-26 15:14:59 51°10.41 2°38.72 -999 -999 -999 -999
2003-05-26 15:15:59 51°10.47 2°39.04 -999 -999 -999 -999
2003-05-26 15:16:59 51°10.52 2°39.37 -999 -999 -999 -999
2003-05-26 15:17:59 51°10.58 2°39.69 -999 -999 -999 -999
2003-05-26 15:18:59 51°10.66 2°40.01 -999 -999 -999 -999
2003-05-26 15:19:59 51°10.73 2°40.33 -999 -999 -999 -999
2003-05-26 15:20:59 51°10.8 2°40.65 -999 -999 -999 -999
2003-05-26 15:21:59 51°10.86 2°40.97 -999 -999 -999 -999
2003-05-26 15:22:59 51°10.93 2°41.29 -999 -999 -999 -999
2003-05-26 15:23:59 51°10.99 2°41.61 -999 -999 -999 -999
2003-05-26 15:24:59 51°11.05 2°41.87 -999 -999 -999 -999
2003-05-26 15:25:59 51°11.08 2°42.01 -999 -999 -999 -999
2003-05-26 15:26:59 51°11.07 2°42.08 -999 -999 -999 -999
2003-05-26 15:28:11 51°11.05 2°42.07 -999 -999 -999 -999
2003-05-26 15:29:11 51°11.03 2°42.05 -999 -999 -999 -999
2003-05-26 15:30:11 51°11.01 2°42.03 -999 -999 -999 -999
2003-05-26 15:31:11 51°10.99 2°42.01 -999 -999 -999 -999
2003-05-26 15:32:11 51°10.97 2°41.99 -999 -999 -999 -999
2003-05-26 15:33:11 51°10.95 2°41.95 -999 -999 -999 -999
2003-05-26 15:34:11 51°10.93 2°41.92 -999 -999 -999 -999
2003-05-26 15:35:11 51°10.92 2°41.87 -999 -999 -999 -999
2003-05-26 15:36:11 51°10.9 2°41.83 -999 -999 -999 -999
2003-05-26 15:37:11 51°10.89 2°41.79 -999 -999 -999 -999
2003-05-26 15:38:11 51°10.88 2°41.74 -999 -999 -999 -999
2003-05-26 15:39:11 51°10.87 2°41.7 -999 -999 -999 -999
2003-05-26 15:40:11 51°10.87 2°41.64 -999 -999 -999 -999
2003-05-26 15:41:29 51°10.93 2°41.62 -999 -999 -999 -999
2003-05-26 15:42:27 51°10.98 2°41.72 -999 -999 -999 -999
2003-05-26 15:43:29 51°11.07 2°41.88 -999 -999 -999 -999
2003-05-26 15:44:27 51°11.07 2°41.92 -999 -999 -999 -999
2003-05-26 15:45:43 51°11.06 2°41.92 -999 -999 -999 -999
2003-05-26 15:46:43 51°11.05 2°41.92 -999 -999 -999 -999
2003-05-26 15:47:43 51°11.05 2°41.92 -999 -999 -999 -999
2003-05-26 15:48:43 51°11.04 2°41.92 -999 -999 -999 -999
2003-05-26 15:49:43 51°11.03 2°41.91 -999 -999 -999 -999
2003-05-26 15:50:43 51°11.03 2°41.91 -999 -999 -999 -999
2003-05-26 15:51:43 51°11.03 2°42.11 -999 -999 -999 -999
2003-05-26 15:52:43 51°11.08 2°42.43 -999 -999 -999 -999
2003-05-26 15:53:43 51°11.14 2°42.75 -999 -999 -999 -999
2003-05-26 15:54:55 51°11.22 2°43.14 -999 -999 -999 -999
2003-05-26 15:55:59 51°11.28 2°43.48 -999 -999 -999 -999
2003-05-26 15:56:59 51°11.34 2°43.8 -999 -999 -999 -999
2003-05-26 15:57:59 51°11.39 2°44.12 -999 -999 -999 -999
2003-05-26 15:59:15 51°11.47 2°44.52 -999 -999 -999 -999
2003-05-26 16:00:15 51°11.54 2°44.84 -999 -999 -999 -999
2003-05-26 16:01:19 51°11.61 2°45.17 -999 -999 -999 -999
2003-05-26 16:02:25 51°11.68 2°45.52 -999 -999 -999 -999
2003-05-26 16:03:29 51°11.75 2°45.86 -999 -999 -999 -999
2003-05-26 16:04:35 51°11.82 2°46.2 -999 -999 -999 -999
2003-05-26 16:05:39 51°11.88 2°46.54 -999 -999 -999 -999
2003-05-26 16:06:45 51°11.95 2°46.88 -999 -999 -999 -999
2003-05-26 16:07:49 51°12.02 2°47.22 -999 -999 -999 -999
2003-05-26 16:08:55 51°12.1 2°47.56 -999 -999 -999 -999
2003-05-26 16:10:05 51°12.22 2°47.9 -999 -999 -999 -999
2003-05-26 16:11:09 51°12.31 2°48.21 -999 -999 -999 -999
2003-05-26 16:12:09 51°12.41 2°48.51 -999 -999 -999 -999
2003-05-26 16:13:09 51°12.53 2°48.78 -999 -999 -999 -999
2003-05-26 16:14:19 51°12.66 2°49.09 -999 -999 -999 -999
2003-05-26 16:15:25 51°12.79 2°49.39 -999 -999 -999 -999
2003-05-26 16:16:29 51°12.9 2°49.68 -999 -999 -999 -999
2003-05-26 16:17:35 51°13.01 2°50 -999 -999 -999 -999
2003-05-26 16:18:39 51°13.12 2°50.31 -999 -999 -999 -999
2003-05-26 16:19:39 51°13.22 2°50.59 -999 -999 -999 -999
2003-05-26 16:20:45 51°13.33 2°50.9 -999 -999 -999 -999
2003-05-26 16:21:49 51°13.44 2°51.22 -999 -999 -999 -999
2003-05-26 16:22:55 51°13.55 2°51.54 -999 -999 -999 -999
2003-05-26 16:23:59 51°13.66 2°51.85 -999 -999 -999 -999
2003-05-26 16:25:09 51°13.78 2°52.2 -999 -999 -999 -999
2003-05-26 16:26:09 51°13.88 2°52.49 -999 -999 -999 -999
2003-05-26 16:27:09 51°13.98 2°52.78 -999 -999 -999 -999
2003-05-26 16:28:35 51°14.11 2°53.17 -999 -999 -999 -999
2003-05-26 16:29:39 51°14.17 2°53.3 -999 -999 -999 -999
2003-05-26 16:30:55 51°14.21 2°53.38 -999 -999 -999 -999
2003-05-26 16:32:05 51°14.24 2°53.41 -999 -999 -999 -999
2003-05-26 16:33:09 51°14.26 2°53.45 -999 -999 -999 -999
2003-05-26 16:34:09 51°14.29 2°53.5 -999 -999 -999 -999
2003-05-26 16:35:15 51°14.38 2°53.64 -999 -999 -999 -999
2003-05-26 16:36:39 51°14.47 2°53.92 -999 -999 -999 -999
2003-05-26 16:37:45 51°14.5 2°54.18 -999 -999 -999 -999
2003-05-26 16:38:49 51°14.5 2°54.44 -999 -999 -999 -999
2003-05-26 16:39:55 51°14.46 2°54.7 -999 -999 -999 -999
2003-05-26 16:40:59 51°14.4 2°54.93 -999 -999 -999 -999
2003-05-26 16:41:59 51°14.34 2°55.13 -999 -999 -999 -999
2003-05-26 16:42:59 51°14.27 2°55.27 -999 -999 -999 -999